www.pogodaiklimat.ru

Погода и климат >> Архив погоды >> Австралия >> Западная Австралия >> Ньюман


ПОГОДА в Ньюмане

  • Прогноз погоды в Ньюмане
  • Монитор погоды в Ньюмане

АРХИВ ПОГОДЫ в Ньюмане

Время (UTC), дата Ветер
(напр.,м/с)
 
Видим.   Явления Облачность Т
(С)
Тd
(С)
f
(%)
Тe
(С)
Тes
(С)
Комфортность P
(гПа)
Po
(гПа)
Тmin
(С)
Tmax
(С)
R
(мм)
R24
(мм)
S
(см)
07 18.06 В 4 н/о н/о +24.6 +3.8 26 +24 +24 комфорт 1016.3 955.7
09 18.06 ЮВ 4 н/о н/о +23.3 +3.3 27 +23 +23 комфорт 1016.9 956.2
10 18.06 ЮВ 3 н/о н/о +20.5 +2.8 31 +21 +21 комфорт 1017.4 956.7
12 18.06 В 4 н/о н/о +18.3 +2.6 35 +18 +18 1017.9 957.2
13 18.06 ЮВ 4 н/о н/о +17.5 +2.3 36 +17 +17 1018.1 957.4 +24.9
15 18.06 ЮВ 2 н/о н/о +14.8 +1.7 41 +15 +15 1018.6 957.8
16 18.06 ЮВ 4 н/о н/о +15.1 +2.0 41 +14 +14 1017.9 957.2
18 18.06 ЮВ 4 н/о н/о +14.0 +2.6 46 +13 +13 1017.4 956.7
19 18.06 Ю 3 н/о н/о +11.8 +2.0 51 +11 +11 1017.3 956.6
21 18.06 Ю 2 н/о н/о +9.5 +1.7 58 +8 +8 1017.3 956.6
22 18.06 ЮЗ 3 н/о н/о +8.5 +1.4 61 +7 +7 1017.7 957.0
00 19.06 Ю 3 н/о н/о +12.5 +2.4 50 +12 +12 1018.6 957.8
01 19.06 В 3 н/о н/о +15.4 +2.6 42 +15 +15 1018.8 958.0 +8.3
03 19.06 В 3 н/о н/о +20.7 +4.3 34 +22 +22 комфорт 1017.4 956.7
04 19.06 В 3 н/о н/о +22.2 +4.3 31 +22 +22 комфорт 1016.1 955.5
06 19.06 С 2 н/о н/о +24.7 +3.9 26 +24 +24 комфорт 1014.5 954.0
07 19.06 Ю 2 н/о 1/0
[]
+25.5 +4.0 25 +25 +29 комфорт 1014.4 953.9
09 19.06 ЮВ 2 н/о н/о +24.0 +2.8 25 +23 +23 комфорт 1014.7 954.2
10 19.06 Ю 2 н/о 10/0
[]
+22.4 +3.0 28 +22 +22 комфорт 1015.1 954.5
12 19.06 В 2 н/о н/о +19.6 +2.9 33 +21 +21 комфорт 1016.2 955.6
13 19.06 ЮВ 2 н/о 10/0
[]
+17.8 +2.5 36 +19 +19 1016.4 955.8 +26.1
15 19.06 ЮВ 2 н/о н/о +17.0 +3.0 39 +17 +17 1016.6 955.9
16 19.06 Ю 2 н/о 9/0
[]
+15.6 +3.1 43 +16 +16 1016.3 955.7
18 19.06 З 3 н/о н/о +12.1 +1.7 49 +11 +11 1016.3 955.7
19 19.06 ЮЗ 3 н/о 1/0
[]
+11.3 +1.3 50 +10 +10 1016.3 955.7
21 19.06 Ю 3 н/о н/о +10.3 +1.4 54 +9 +9 1016.1 955.5
22 19.06 Ю 2 н/о н/о +9.3 +0.7 55 +8 +8 1016.7 956.0
00 20.06 ЮЗ 1 н/о н/о +12.7 +2.0 48 +13 +13 1018.1 957.4
01 20.06 штиль 0 н/о 3/0
[]
+16.7 +2.7 39 +17 +22 1018.5 957.7 +8.5
03 20.06 СВ 3 н/о н/о +21.8 +3.5 30 +22 +22 комфорт 1017.8 957.1
04 20.06 С 4 н/о 4/0
[]
+23.7 +4.1 28 +23 +29 комфорт 1017.0 956.3
06 20.06 С 5 н/о н/о +27.5 +3.9 22 +26 +26 жарко 1015.1 954.5
07 20.06 С 5 н/о 10/0 2000 м
[]
+27.2 +4.3 23 +26 +27 жарко 1015.0 954.4
09 20.06 С 4 н/о н/о +25.8 +6.4 29 +25 +25 комфорт 1015.3 954.7
10 20.06 С 3 н/о 9/0
[]
+24.1 +5.9 31 +24 +24 комфорт 1015.6 955.0
12 20.06 С 2 н/о н/о +21.7 +7.9 41 +23 +23 комфорт 1016.9 956.2
13 20.06 С 7 н/о 10/0
[]
+22.0 +11.7 52 +24 +24 комфорт 1017.4 956.7 +28.0
15 20.06 С 6 н/о н/о +19.5 +13.7 69 +21 +21 комфорт 1017.5 956.8
16 20.06 С 6 н/о 10/10 300 м
[]
+17.6 +14.5 82 +17 +17 1017.8 957.1
18 20.06 С 7 н/о н/о +16.3 +13.6 84 +15 +15 1017.5 956.8
19 20.06 СВ 4 н/о 10/0 2000 м
[]
+16.1 +12.8 81 +15 +15 1017.2 956.5
21 20.06 С 3 н/о н/о +15.5 +12.3 81 +15 +15 1017.8 957.1
22 20.06 С 6 н/о 10/10 1000 м
[]
+16.0 +11.6 75 +15 +15 1019.0 958.2
00 21.06 С 6 н/о н/о +13.2 +11.6 90 +11 +11 1020.1 959.2
01 21.06 В 2 7000 м туман 10/10 600 м
[]
+13.0 +11.9 93 +12 +12 1021.1 960.2 +12.8
03 21.06 СВ 5 н/о н/о +15.2 +12.7 85 +14 +14 1019.6 958.8
04 21.06 СВ 5 н/о {туман} 10/0
[]
+17.1 +10.0 63 +16 +19 1019.1 958.3
06 21.06 СВ 5 н/о н/о +20.2 +10.3 53 +22 +22 комфорт 1017.5 956.8
07 21.06 СВ 6 н/о {туман} н/о +20.0 +10.7 55 +21 +21 комфорт 1017.3 956.6
09 21.06 СВ 5 н/о н/о +18.9 +9.9 56 +19 +19 1018.0 957.3
10 21.06 С 6 н/о 10/10 1500 м
[]
+18.5 +10.8 61 +18 +18 1018.4 957.6
12 21.06 С 2 н/о н/о +16.8 +11.1 69 +17 +17 1019.6 958.8
13 21.06 В 2 н/о в посл. час дождь {туман} 10/0
[]
+16.6 +12.0 74 +17 +17 1019.7 958.9 +22.6
15 21.06 СВ 4 н/о н/о +16.1 +12.3 78 +15 +15 1018.8 958.0
16 21.06 СВ 3 н/о 10/0
[]
+16.1 +10.0 67 +16 +16 1018.5 957.7
18 21.06 С 2 н/о н/о +15.8 +9.9 68 +16 +16 1018.1 957.4
19 21.06 штиль 0 н/о 10/0 2000 м
[]
+15.0 +11.0 77 +15 +15 1017.8 957.1
21 21.06 СВ 2 н/о н/о +14.8 +8.3 65 +15 +15 1017.7 957.0
22 21.06 СВ 2 н/о 10/0 2000 м
[]
+14.9 +7.9 63 +15 +15 1018.3 957.5
00 22.06 СВ 3 н/о н/о +17.1 +5.4 46 +17 +17 1019.0 958.2
01 22.06 С 5 н/о н/о +18.3 +4.5 40 +18 +18 1019.7 958.9 +13.0
03 22.06 СВ 6 н/о н/о +21.2 +3.0 30 +21 +21 комфорт 1018.7 957.9
04 22.06 С 7 н/о н/о +22.3 +3.4 29 +22 +22 комфорт 1017.7 957.0
06 22.06 С 7 н/о н/о +23.9 +2.1 24 +23 +23 комфорт 1016.1 955.5
07 22.06 С 6 н/о 3/0
[]
+24.4 +2.5 24 +24 +25 комфорт 1015.6 955.0
09 22.06 С 4 н/о н/о +23.2 +3.2 27 +23 +23 комфорт 1015.6 955.0
10 22.06 С 3 н/о 4/0
[]
+21.6 +4.2 32 +22 +22 комфорт 1016.0 955.4
12 22.06 С 3 н/о н/о +19.6 +4.5 37 +20 +20 1017.0 956.3
13 22.06 В 1 н/о 10/0
[]
+18.0 +9.1 56 +20 +20 1017.6 956.9 +24.9
15 22.06 В 2 н/о н/о +17.4 +9.6 60 +18 +18 1018.0 957.3
16 22.06 В 2 н/о 3/0
[]
+16.8 +8.2 57 +17 +17 1017.8 957.1
18 22.06 СВ 3 н/о н/о +15.9 +5.5 50 +16 +16 1017.4 956.7
19 22.06 штиль 0 н/о 10/0
[]
+14.7 +8.4 66 +15 +15 1017.3 956.6
21 22.06 ЮВ 2 н/о н/о +14.6 +4.3 50 +14 +14 1016.9 956.2
22 22.06 С 2 н/о н/о +14.1 +3.3 48 +14 +14 1017.2 956.5
00 23.06 С 6 н/о н/о +16.5 -1.1 30 +16 +16 1018.4 957.6
01 23.06 С 6 н/о н/о +18.4 -1.4 26 +18 +18 1018.6 957.8 +13.8
03 23.06 СВ 7 н/о н/о +22.2 -5.6 15 +21 +21 комфорт 1017.6 956.9
04 23.06 СВ 6 н/о 6/0
[]
+24.0 -6.1 13 +22 +25 комфорт 1016.9 956.2
06 23.06 С 5 н/о н/о +25.8 -3.7 14 +23 +23 комфорт 1015.8 955.2
07 23.06 С 5 н/о 8/0
[]
+25.2 -2.4 16 +23 +25 комфорт 1015.9 955.3
09 23.06 С 5 н/о н/о +25.0 -2.5 16 +23 +23 комфорт 1016.3 955.7
10 23.06 С 3 н/о н/о +22.3 -0.4 22 +21 +21 комфорт 1017.1 956.4
12 23.06 СЗ 3 н/о н/о +19.2 +1.2 30 +20 +20 1018.6 957.8
13 23.06 С 3 н/о 10/0
[]
+19.9 -0.1 26 +20 +20 1018.8 958.0 +26.4
15 23.06 С 3 н/о н/о +18.6 -0.7 27 +19 +19 1018.3 957.5
16 23.06 С 2 н/о 4/0
[]
+16.7 +2.0 37 +17 +17 1018.0 957.3
18 23.06 З 2 н/о н/о +15.9 +3.7 44 +16 +16 1018.5 957.7
19 23.06 В 3 н/о 10/0
[]
+16.5 +3.6 42 +16 +16 1018.0 957.3
21 23.06 Ю 3 н/о н/о +15.1 +3.9 47 +15 +15 1018.4 957.6
22 23.06 ЮЗ 2 н/о 10/0
[]
+14.5 +6.1 57 +15 +15 1019.1 958.3
00 24.06 штиль 0 н/о н/о +17.2 +7.3 52 +17 +17 1020.3 959.4
01 24.06 ЮВ 2 н/о 9/0
[]
+20.0 +7.4 44 +22 +24 комфорт 1020.7 959.8 +14.4
03 24.06 В 3 н/о н/о +24.9 +4.6 27 +24 +24 комфорт 1020.0 959.1
04 24.06 В 2 н/о 4/0 2000 м
[]
+25.6 +2.3 22 +24 +33 комфорт 1019.2 958.4
06 24.06 С 2 н/о н/о +27.4 +1.8 19 +26 +26 жарко 1017.9 957.2
07 24.06 ЮВ 2 н/о 9/0
[]
+27.7 +1.2 18 +26 +28 жарко 1017.8 957.1
09 24.06 ЮВ 1 н/о н/о +26.3 +0.9 19 +25 +25 комфорт 1018.8 958.0
10 24.06 В 2 н/о 6/0
[]
+25.2 +2.0 22 +24 +24 комфорт 1019.4 958.6
12 24.06 В 2 н/о н/о +22.7 +2.8 27 +22 +22 комфорт 1020.8 959.9
13 24.06 В 2 н/о 3/0
[]
+20.3 +5.9 39 +22 +22 комфорт 1021.2 960.3 +28.4
15 24.06 штиль 0 н/о н/о +18.1 +6.3 46 +18 +18 1020.9 960.0
16 24.06 штиль 0 н/о н/о +16.0 +7.0 55 +16 +16 1020.7 959.8
18 24.06 В 3 н/о н/о +15.5 +4.6 48 +15 +15 1020.3 959.4
19 24.06 Ю 2 н/о н/о +14.1 +3.8 50 +14 +14 1020.4 959.5
21 24.06 В 2 н/о н/о +12.7 +5.4 61 +12 +12 1020.7 959.8
22 24.06 С 2 н/о 4/0
[]
+13.4 +2.9 49 +13 +13 1021.1 960.2
00 25.06 В 2 н/о н/о +16.6 -0.1 32 +17 +17 1022.0 961.0
01 25.06 В 1 н/о 9/0
[]
+19.8 -2.5 22 +21 +24 комфорт 1022.6 961.6 +12.3
03 25.06 СВ 4 н/о н/о +25.2 -8.5 10 +22 +22 комфорт 1022.2 961.2
04 25.06 СВ 5 н/о 5/0
[]
+25.7 -9.5 9 +23 +27 комфорт 1021.1 960.2
06 25.06 С 3 н/о н/о +26.5 -8.9 9 +23 +23 комфорт 1020.2 959.3
07 25.06 С 1 н/о 10/0
[]
+26.5 -7.6 10 +23 +26 комфорт 1020.0 959.1

 

Местоположение метеостанции Ньюман (Западная Австралия, Австралия): широта -23.41 долгота 119.80 высота над уровнем моря 524 м.

В архиве по умолчанию представлена погода в Ньюмане за последнюю неделю. Архивные данные за месяц целиком и за предыдущие месяцы, начиная с января 2011 года, Вы можете получить, выбрав интересующий диапазон дат из раскрывающегося списка и нажав кнопку "Ввод!".


*Определитесь, кто Вы:
робот инопланетянин человек

Внимание! Время в таблицах - всемирное. Для получения местного времени необходимо прибавить поправку, которая равна 8 ч.

Смотрите также архив погоды в соседних городах и на ближайших метеорологических станциях:

Погода в Параберду (Западная Австралия, Австралия) (211 км)
Погода в Марбл-баре (Западная Австралия, Австралия) (248 км)
Погода в Телфере (Западная Австралия, Австралия) (311 км)
Погода в Порт-Хедленде Apardoo (Западная Австралия, Австралия) (360 км)
Погода в Микатарре (Западная Австралия, Австралия) (378 км)
Погода в Роборн аэропорту (Западная Австралия, Австралия) (403 км)
Погода в Мандоре (Западная Австралия, Австралия) (423 км)
Погода в Каррате (Западная Австралия, Австралия) (432 км)
Погода в Марди (Западная Австралия, Австралия) (466 км)
Погода в Леинстере (Западная Австралия, Австралия) (502 км)

Пояснения к столбцам:

Ветер - указаны скорость ветра в м/с - средняя за 10 мин, порывы в срок и между сроками (в фигурных скобках) и направление, откуда дует ветер: С - северный, СВ - северо-восточный, В - восточный, ЮВ - юго-восточный, Ю - южный, ЮЗ - юго-западный, З - западный, СЗ - северо-западный.
Видимость - горизонтальная дальность видимости в метрах или километрах. При видимости от 1 до 10 км при отсутствии осадков обычно наблюдается дымка, при ухудшении видимости до 1 км и менее - туман. В сухую погоду видимость может ухудшаться дымом, пылью или мглою.
Явления - указаны атмосферные явления, наблюдавшиеся в срок или в последний час перед сроком; фигурными скобками обозначены явления, наблюдавшиеся между сроками (за 1-3 часа до срока); квадратными скобками обозначены град или гололедные отложения с указанием их диаметра в мм.
Облачность - указаны через наклонную черту общая и нижняя облачность в баллах и высота нижней границы облаков в метрах; квадратными скобками обозначены формы облаков: Ci - перистые, Cs - перисто-слоистые, Cc - перисто-кучевые, Ac - высококучевые, As - высокослоистые, Sc - слоисто-кучевые, Ns - слоисто-дождевые, Cu - кучевые, Cb - кучево-дождевые. Подробнее классификацию облаков см. в Атласе облаков (PDF).
T - Температура воздуха - температура, измеренная на высоте 2 м над землей.
Td - Температура точки росы - температура, при понижении до которой содержащийся в воздухе водяной пар достигнет насыщения.
f - Относительная влажность воздуха - влажноcть воздуха, измеренная на высоте 2 м над землей.
Te - Эффективная температура - температура, которую ощущает одетый по сезону человек в тени. Характеристика душности погоды. При расчете учитывается влияние влажности воздуха и скорости ветра на теплоощущения человека.
Tes - Эффективная температура на солнце - температура, которую ощущает человек, с поправкой на солнечный нагрев. Характеристика знойности погоды. Зависит от высоты солнца над горизонтом, облачности и скорости ветра. Ночью, в пасмурную погоду, а также при ветре 12 м/с и более поправка равна нулю.
P - Атмосферное давление - приведенное к уровню моря атмосферное давление.
Po - Атмосферное давление - измеренное на уровне метеостанции атмосферное давление.
Tmin - Минимальная температура - минимум температуры воздуха на высоте 2 м над землей.
Tmax - Максимальная температура - максимум температуры воздуха на высоте 2 м над землей.
R - Количество осадков - Количество выпавших осадков за период времени, мм. При наведении курсора мыши на число - период времени, за который выпало указанное количество осадков.
R24 - Количество осадков - Количество выпавших осадков за 24 часа, мм.
S - Снежный покров - Высота снежного покрова, см. При наведении курсора мыши на число - состояние снежного покрова и степень покрытия местности в баллах.